Location: Sihaung
(22.8641°N, 94.0549°E)
Time: 17:51:40
(UTC+00:00)

Cosmos 1633 Rocket - Pass Details

Date: 03 March 2021
Orbit: 606 x 624 km, 82.5° (Epoch: 13 April)

Event Time Altitude Azimuth Distance (km) Brightness Sun altitude
Rises 23:16:47 0° 1° (N) 2,887 6.5 -11.4°
Reaches altitude 10° 23:19:04 10° 6° (N) 1,977 5.7 -10.9°
Maximum altitude 23:23:21 55° 84° (E) 738 3.9 -9.9°
Drops below altitude 10° 23:27:36 10° 162° (SSE) 1,958 5.9 -8.9°
Sets 23:29:50 0° 167° (SSE) 2,857 6.7 -8.4°
